User: anonymous   Login
Location: Los Gatos B&B
(42.6926°N, 77.0646°W)
Time: 07:38:19
(UTC-04:00)
Language:

Cosmos 2263 Rocket - Orbit

View from above orbital plane
View from above orbital plane
View from above satellite
View from above satellite

Ground track
Ground track

The orbit data is extracted from the following two-line orbital elements,

1 22803U 93059B   18109.00959203 -.00000096  00000-0 -24022-4 0  9999
2 22803  70.9902 324.9954 0019421 278.5640  81.3282 14.16787734271595
Epoch (UTC): 19 April 2018 00:13:48
Eccentricity: 0.0019421
inclination: 70.9902°
perigee height: 822 km
apogee height: 850 km
right ascension of ascending node: 324.9954°
argument of perigee: 278.5640°
revolutions per day: 14.16787734
mean anomaly at epoch: 81.3282°
orbit number at epoch: 27159

The dashed part of the orbit path shows where the satellite is in the earth's shadow,  

DLR